Total_Precipitation_Accumulation
0.00 0.00 0.00 0.00 0.00 0.00 0.00 0.00 0.00 0.00 0.00 0.01 0.00 0.02 0.04 0.08 0.16 0.20 0.30 0.50 0.60 0.60 0.50 0.61 0.79 0.75 0.63 0.57 0.44 0.40 0.34 0.24 0.11 0.07 0.07 0.06 0.01 0.01 0.01 0.01 0.00 0.01 0.04
0.00 0.00 0.00 0.00 0.00 0.00 0.00 0.00 0.00 0.00 0.00 0.00 0.00 0.01 0.02 0.02 0.03 0.05 0.11 0.16 0.24 0.36 0.56 0.70 0.60 0.48 0.53 0.58 0.50 0.33 0.32 0.38 0.38 0.33 0.24 0.26 0.21 0.07 0.01 0.01 0.00 0.00 0.00
0.00 0.00 0.00 0.00 0.00 0.00 0.00 0.00 0.00 0.00 0.00 0.00 0.00 0.01 0.02 0.03 0.03 0.06 0.08 0.13 0.13 0.17 0.21 0.29 0.40 0.40 0.35 0.29 0.26 0.22 0.19 0.24 0.30 0.27 0.31 0.22 0.20 0.17 0.11 0.03 0.01 0.00 0.00
0.00 0.00 0.00 0.00 0.00 0.00 0.00 0.00 0.00 0.00 0.00 0.00 0.00 0.00 0.00 0.00 0.01 0.03 0.08 0.09 0.10 0.13 0.17 0.21 0.27 0.24 0.21 0.22 0.18 0.12 0.07 0.10 0.18 0.17 0.13 0.07 0.06 0.11 0.18 0.15 0.08 0.04 0.01
0.00 0.00 0.00 0.00 0.00 0.00 0.00 0.00 0.00 0.00 0.00 0.00 0.00 0.00 0.00 0.00 0.00 0.01 0.02 0.05 0.05 0.06 0.09 0.13 0.17 0.22 0.20 0.14 0.12 0.10 0.08 0.08 0.10 0.10 0.09 0.08 0.06 0.02 0.02 0.03 0.03 0.03 0.02
0.00 0.00 0.00 0.00 0.00 0.00 0.00 0.00 0.00 0.00 0.00 0.00 0.00 0.01 0.01 0.01 0.02 0.02 0.02 0.02 0.02 0.03 0.04 0.07 0.10 0.11 0.12 0.12 0.13 0.13 0.12 0.12 0.09 0.12 0.08 0.05 0.03 0.02 0.02 0.01 0.01 0.02 0.01
0.00 0.00 0.00 0.00 0.00 0.00 0.01 0.01 0.00 0.00 0.01 0.03 0.02 0.02 0.02 0.02 0.03 0.03 0.03 0.03 0.03 0.05 0.07 0.07 0.07 0.10 0.10 0.10 0.09 0.13 0.15 0.13 0.12 0.10 0.10 0.07 0.03 0.01 0.01 0.01 0.01 0.02 0.03
0.00 0.00 0.00 0.00 0.00 0.00 0.00 0.02 0.02 0.02 0.02 0.04 0.04 0.04 0.03 0.04 0.05 0.06 0.07 0.05 0.03 0.04 0.06 0.08 0.11 0.10 0.12 0.13 0.11 0.11 0.09 0.10 0.14 0.13 0.12 0.17 0.18 0.13 0.10 0.11 0.09 0.14 0.07
0.00 0.00 0.00 0.00 0.00 0.00 0.00 0.02 0.03 0.03 0.04 0.06 0.07 0.06 0.06 0.07 0.09 0.10 0.17 0.17 0.10 0.09 0.08 0.10 0.08 0.11 0.14 0.15 0.18 0.17 0.11 0.08 0.06 0.06 0.06 0.08 0.14 0.15 0.12 0.10 0.08 0.08 0.07
0.00 0.00 0.00 0.00 0.00 0.00 0.00 0.03 0.03 0.02 0.02 0.02 0.03 0.04 0.05 0.06 0.11 0.20 0.15 0.25 0.29 0.14 0.08 0.07 0.11 0.11 0.12 0.16 0.22 0.22 0.21 0.16 0.13 0.16 0.13 0.07 0.07 0.11 0.12 0.11 0.09 0.07 0.05
0.00 0.00 0.00 0.00 0.00 0.00 0.00 0.01 0.04 0.04 0.03 0.02 0.04 0.06 0.09 0.11 0.16 0.26 0.34 0.25 0.27 0.33 0.15 0.12 0.11 0.14 0.15 0.14 0.18 0.18 0.17 0.25 0.29 0.26 0.23 0.19 0.16 0.17 0.17 0.15 0.14 0.13 0.11
0.00 0.00 0.00 0.00 0.00 0.00 0.00 0.01 0.03 0.03 0.04 0.05 0.04 0.05 0.12 0.14 0.27 0.48 0.40 0.33 0.25 0.30 0.31 0.20 0.18 0.16 0.17 0.16 0.12 0.14 0.20 0.21 0.20 0.25 0.29 0.24 0.18 0.19 0.22 0.20 0.17 0.13 0.10
0.00 0.00 0.00 0.00 0.00 0.00 0.00 0.01 0.03 0.03 0.07 0.11 0.14 0.14 0.19 0.34 0.39 0.45 0.45 0.29 0.26 0.24 0.35 0.34 0.25 0.20 0.17 0.16 0.15 0.11 0.09 0.13 0.16 0.20 0.24 0.25 0.27 0.27 0.26 0.21 0.16 0.14 0.11
0.00 0.00 0.00 0.00 0.00 0.00 0.00 0.00 0.03 0.04 0.04 0.06 0.07 0.12 0.29 0.28 0.39 0.34 0.41 0.38 0.31 0.38 0.32 0.33 0.24 0.18 0.20 0.17 0.15 0.16 0.15 0.13 0.13 0.11 0.11 0.13 0.21 0.25 0.26 0.27 0.23 0.17 0.11
0.01 0.01 0.01 0.00 0.00 0.00 0.00 0.00 0.02 0.06 0.05 0.05 0.06 0.15 0.52 0.46 0.48 0.47 0.42 0.39 0.37 0.35 0.39 0.31 0.38 0.29 0.21 0.22 0.25 0.19 0.21 0.18 0.17 0.17 0.14 0.12 0.17 0.22 0.20 0.13 0.11 0.10 0.08
0.02 0.00 0.00 0.00 0.00 0.01 0.00 0.00 0.02 0.04 0.07 0.07 0.08 0.15 0.32 0.94 1.13 0.90 0.63 0.46 0.52 0.42 0.45 0.42 0.32 0.41 0.40 0.50 0.42 0.34 0.26 0.24 0.25 0.22 0.20 0.21 0.21 0.13 0.10 0.06 0.04 0.03 0.02
0.00 0.00 0.00 0.00 0.00 0.01 0.02 0.04 0.06 0.08 0.06 0.11 0.13 0.13 0.43 0.82 0.89 0.80 0.78 0.63 0.58 0.55 0.55 0.56 0.57 0.53 0.49 0.59 0.52 0.43 0.30 0.31 0.21 0.20 0.21 0.17 0.13 0.11 0.04 0.02 0.02 0.01 0.01
0.00 0.00 0.00 0.00 0.00 0.01 0.06 0.14 0.09 0.19 0.21 0.09 0.13 0.43 0.83 0.59 0.58 0.53 0.55 0.69 0.56 0.49 0.54 0.51 0.55 0.60 0.62 0.49 0.35 0.39 0.33 0.27 0.26 0.18 0.14 0.16 0.16 0.09 0.06 0.05 0.03 0.02 0.01
0.00 0.00 0.00 0.00 0.01 0.00 0.05 0.06 0.11 0.20 0.24 0.24 0.18 0.53 0.68 0.52 0.60 0.53 0.43 0.38 0.39 0.38 0.53 0.46 0.47 0.50 0.50 0.42 0.29 0.24 0.28 0.34 0.30 0.22 0.18 0.17 0.18 0.17 0.12 0.08 0.05 0.02 0.02
0.00 0.00 0.00 0.02 0.01 0.00 0.02 0.05 0.08 0.12 0.20 0.26 0.22 0.27 0.55 0.41 0.40 0.35 0.22 0.20 0.25 0.25 0.32 0.37 0.47 0.59 0.42 0.41 0.35 0.25 0.22 0.29 0.35 0.32 0.24 0.21 0.14 0.07 0.04 0.02 0.01 0.01 0.00
0.00 0.00 0.00 0.01 0.00 0.00 0.02 0.06 0.11 0.10 0.22 0.23 0.29 0.29 0.37 0.43 0.37 0.32 0.31 0.26 0.19 0.20 0.29 0.35 0.42 0.38 0.39 0.33 0.36 0.29 0.17 0.10 0.12 0.12 0.10 0.06 0.03 0.01 0.01 0.00 0.00 0.00 0.00
0.00 0.00 0.00 0.01 0.00 0.00 0.00 0.02 0.12 0.16 0.22 0.26 0.36 0.34 0.32 0.45 0.47 0.42 0.42 0.41 0.26 0.25 0.27 0.27 0.30 0.29 0.29 0.27 0.20 0.16 0.14 0.08 0.03 0.04 0.02 0.01 0.01 0.01 0.00 0.00 0.00 0.00 0.00
0.00 0.00 0.00 0.00 0.00 0.00 0.01 0.02 0.06 0.23 0.26 0.22 0.29 0.41 0.50 0.47 0.45 0.46 0.40 0.30 0.27 0.22 0.18 0.12 0.13 0.19 0.17 0.14 0.15 0.10 0.05 0.01 0.01 0.01 0.01 0.01 0.00 0.00 0.00 0.00 0.00 0.00 0.00
0.00 0.00 0.00 0.00 0.00 0.01 0.02 0.02 0.03 0.12 0.23 0.29 0.30 0.38 0.48 0.50 0.44 0.50 0.44 0.31 0.23 0.18 0.11 0.07 0.07 0.09 0.09 0.05 0.05 0.04 0.03 0.02 0.01 0.01 0.00 0.00 0.00 0.00 0.00 0.00 0.00 0.00 0.00
0.00 0.00 0.00 0.00 0.00 0.02 0.04 0.03 0.03 0.05 0.10 0.20 0.31 0.43 0.51 0.49 0.51 0.57 0.58 0.45 0.35 0.24 0.15 0.08 0.04 0.03 0.03 0.02 0.02 0.01 0.00 0.00 0.00 0.00 0.00 0.00 0.00 0.00 0.00 0.00 0.00 0.00 0.00
0.00 0.00 0.00 0.00 0.00 0.01 0.03 0.06 0.03 0.05 0.07 0.11 0.21 0.38 0.50 0.48 0.51 0.53 0.70 0.77 0.61 0.45 0.35 0.19 0.06 0.05 0.05 0.03 0.02 0.00 0.00 0.00 0.00 0.00 0.00 0.00 0.00 0.00 0.00 0.00 0.00 0.00 0.00